METEOR 2-17 DEB

Satellite information

Favourite Embed

Satellite Type and Status

DEBRISIN ORBIT

Key statistics

Satellite METEOR 2-17 DEB at a glance.

Uptime

13618

Days in orbit

Revolutions

≈ 14.0

Per day

Orbit

LEO

Low Earth Orbit

Inclination

82.5

Latest

Satellite identification and parameters

Extended collection of information and parameters for METEOR 2-17 DEB.

Object identification

Identified? True

Debris? True

Object name: METEOR 2-17 DEB

International designator: 1988-005Z

Object number (NORAD): 35365

Object ID (CCSDS): 35365

Country: COMMONWEALTH OF INDEPENDENT STATES (CIS)

Current information (Y/N): Y

RCS size: SMALL

Orbital parameters

Period: 102.896 minutes

Inclination: 82.506 deg

SMA: 7273.741 km

Apoapsis: 898.479 km

Periapsis: 892.732 km

RAAN: 226.4775 deg

Eccentricy: 0.0003951

Argument of periapsis: 258.5577 deg

Mean anomaly: 162.3952 deg

Mean motion: 13.99477928 rev/day

Mean motion (dot): 0.00002851 rev/day2

B* drag term: 0.0019472 1/REarth

Two-line elements (TLE)

Creation date: May 11, 2025, 2:16 p.m.

Reference frame: TEME

Reference center: EARTH

Epoch: May 11, 2025, 1:35 p.m. UTC

TLE line 0: 0 METEOR 2-17 DEB

TLE line 1: 1 35365U 88005Z 25131.56625093 .00002851 00000-0 19472-2 0 9992

TLE line 2: 2 35365 82.5060 226.4775 0003951 258.5577 162.3952 13.99477928876238

Live tracking on map

Real-time ground track for satellite METEOR 2-17 DEB.

In-orbit conjunctions

A list of the most updated potential collisions computed for object METEOR 2-17 DEB.

Target Orbit TCA Probability of collision Miss distance Type
FENGYUN 1C DEB SSO 2024-11-11 22:44:59 0.0002001468 405.0 (m) DEBRIS

Associated space launch

Second generation soviet meteorological satellite

METEOR 2-17 DEB was lifted into orbit during the mission ‘Tsiklon-3 | Meteor-2 17’, on board a Tsiklon-3 space rocket.

The launch took place on Jan. 30, 1988, 10:59 a.m. from 32/1.

For more information about the launch, click the button.

Launch to space Tsiklon-3 | Meteor-2 17
Tsiklon-3 | Meteor-2 17

Agency: N/A

Status: Launch Successful

Launch date: Jan. 30, 1988, 10:59 a.m. UTC

Rocket: Tsiklon-3

Launch pad: 32/1

Location: Plesetsk Cosmodrome, Russian Federation

...

Latest news about this satellite

There are no fresh news available about this satellite. Check back as we update our databases every day.


Newsletter sign-up

Weekly statistics, charts and insights to help you stay on top of the space industry.